SCP
0 0 0 0 0 0 0 0 0 0 0 0 0 0 0 0 0 0 0 1 1 1 1 1 0 1 1 1 1 1 1 0 0 0 0 0 0 0 0 0 0 0 0 0
0 0 0 0 0 0 0 0 0 0 0 0 0 0 0 0 0 0 1 1 1 1 1 1 1 1 1 1 1 1 1 1 0 0 0 0 0 0 0 0 0 0 0 0
0 0 0 0 0 0 0 0 0 0 0 0 0 0 0 0 0 0 1 1 1 1 1 1 1 1 1 1 1 1 1 1 0 0 0 0 0 0 0 0 0 0 0 0
0 0 0 0 0 0 0 0 0 0 0 0 0 0 0 0 0 0 1 1 1 1 1 1 1 1 1 1 1 1 1 1 1 0 0 0 0 0 0 0 0 0 0 0
0 0 0 0 0 0 0 0 0 0 0 0 0 0 0 0 0 0 0 1 1 1 1 1 1 1 1 1 1 1 1 1 1 0 0 0 0 0 0 0 0 1 1 0
0 0 0 0 0 0 -0 0 0 0 0 0 0 0 0 0 0 0 0 0 1 1 1 1 1 1 1 1 1 1 1 1 1 1 0 0 0 0 0 0 0 1 1 1
0 0 0 0 0 -0 -0 0 0 0 0 0 0 0 0 0 0 0 0 0 1 1 1 1 1 1 1 1 1 2 2 2 1 1 1 0 0 0 0 0 0 1 1 1
0 0 0 0 0 0 -0 0 0 0 0 0 0 0 0 0 0 0 0 0 1 1 1 1 1 2 2 2 2 2 2 2 2 1 1 1 1 0 0 0 1 1 1 1
0 0 0 0 0 0 0 0 0 0 0 0 0 0 0 0 0 0 0 1 1 1 1 1 1 2 2 2 2 3 3 3 2 1 1 1 1 1 1 1 1 1 1 1
0 0 0 0 0 0 0 0 0 0 0 0 0 0 0 1 1 1 1 1 1 1 2 2 2 2 2 2 2 3 3 3 3 2 2 1 1 1 1 1 1 1 1 1
0 0 0 0 0 0 0 0 0 0 0 0 0 0 0 1 1 1 1 1 1 1 2 2 2 2 2 2 2 3 4 4 3 3 2 2 1 1 1 1 1 1 1 1
0 0 0 0 0 0 0 0 0 0 0 0 0 0 0 0 1 1 1 1 1 1 1 2 2 2 2 2 2 3 3 4 3 3 3 2 2 1 1 1 1 1 1 1
0 0 0 0 0 0 0 0 0 0 0 0 0 0 0 0 1 1 1 1 1 1 1 2 2 2 2 2 3 3 3 3 3 3 3 2 2 2 1 1 1 1 1 1
0 0 0 0 0 0 0 0 0 0 0 0 0 0 0 1 1 1 1 1 2 2 2 2 3 3 3 4 4 4 4 4 4 4 3 3 2 2 1 1 1 1 1 1
0 0 0 0 0 0 0 0 0 0 0 0 0 0 0 1 1 1 1 1 2 2 2 3 3 4 4 5 5 4 4 4 4 4 3 3 2 2 1 1 1 1 1 1
0 0 0 0 0 0 0 0 0 0 0 0 0 0 0 1 1 1 1 1 2 2 2 3 3 3 4 4 4 4 4 4 4 4 3 3 2 2 1 1 1 1 1 1
0 0 0 0 0 0 0 0 0 0 0 0 0 0 0 1 1 1 1 1 1 1 2 2 3 3 4 4 4 4 4 3 3 3 3 3 2 2 1 1 1 1 1 2
0 0 0 0 0 0 0 0 0 0 0 0 0 0 0 1 1 1 1 1 1 1 1 2 2 3 3 3 3 3 3 3 3 3 3 3 2 2 2 1 1 1 1 2
0 0 0 0 0 0 0 0 0 0 0 0 0 1 1 1 1 1 1 1 1 1 2 2 2 3 3 3 3 3 2 2 2 2 2 2 2 2 1 1 1 1 1 1
0 0 0 0 0 0 0 0 0 0 0 0 1 1 1 1 1 1 2 2 2 2 2 2 2 2 3 3 3 2 2 2 2 2 2 2 2 2 1 1 1 1 1 1
0 0 0 0 0 0 0 0 0 0 0 1 1 1 1 1 1 2 2 2 2 2 2 2 2 2 2 3 3 2 2 2 2 2 2 2 2 1 1 1 1 1 1 1
0 0 0 0 0 0 0 0 0 0 1 1 1 1 1 1 1 2 2 2 2 2 2 2 2 2 2 2 2 2 2 2 2 2 2 2 2 1 0 0 1 1 1 1
0 0 0 0 0 0 0 0 0 0 0 0 1 1 1 1 1 2 2 2 2 1 2 1 2 2 2 2 2 2 2 2 2 2 2 2 1 1 0 0 1 1 1 1
0 0 0 0 0 0 0 0 0 0 0 0 0 1 1 1 1 2 2 2 2 1 1 1 1 1 1 1 1 2 2 2 2 2 2 2 1 1 1 1 0 0 1 1
0 0 0 0 0 0 0 0 0 0 0 0 0 0 1 1 1 1 2 2 2 1 1 1 1 1 1 1 1 2 2 2 2 1 1 1 1 1 1 0 0 0 0 1
0 0 0 0 0 0 0 0 0 0 0 0 0 0 0 0 1 1 1 2 1 1 1 1 1 1 1 1 1 1 2 2 1 1 1 1 1 1 1 0 0 0 0 0
Wind_Speed
14 14 13 13 13 12 11 11 10 6 7 8 8 7 10 12 11 12 14 15 15 16 16 16 15 16 15 13 11 10 9 8 6 5 5 4 4 3 3 4 5 5 4 4
15 17 16 14 14 12 11 11 12 9 8 9 9 9 10 13 13 13 15 15 16 16 16 16 16 16 16 14 12 11 9 10 8 5 4 3 3 3 4 3 4 5 4 4
18 13 10 12 14 13 13 12 10 9 10 12 11 9 9 12 12 13 13 15 16 16 17 17 16 16 15 14 13 12 10 10 9 7 5 4 3 2 3 3 4 4 5 5
15 14 12 13 14 13 12 12 9 8 10 10 11 8 9 10 10 11 13 13 14 15 16 17 17 16 16 15 14 11 11 10 9 7 6 7 5 5 4 4 4 5 5 5
14 13 13 15 14 13 13 11 9 9 11 13 13 11 7 9 10 10 11 13 14 14 15 16 17 16 15 15 15 12 11 10 9 8 7 6 5 4 4 4 4 5 5 5
16 13 13 13 12 12 13 12 11 11 11 14 14 13 9 8 9 9 8 9 12 13 13 15 15 14 13 14 14 13 11 10 10 9 9 8 7 5 5 4 4 4 4 4
15 15 14 12 12 12 13 12 9 10 10 12 11 12 7 4 6 7 8 8 9 11 12 13 14 15 13 13 13 13 13 12 11 11 9 8 7 6 5 5 5 5 4 4
13 13 12 12 12 12 12 14 11 11 11 10 8 9 6 3 4 6 8 9 9 11 12 13 14 13 13 13 13 13 13 12 12 11 9 7 7 6 5 6 5 5 3 3
12 11 8 10 11 12 14 13 14 13 15 15 11 9 5 2 3 5 7 7 7 8 9 11 12 12 12 12 12 13 13 12 12 11 9 8 7 6 6 5 5 4 3 4
12 13 11 9 10 13 14 12 10 11 11 13 13 10 3 3 3 2 2 4 4 3 4 7 8 11 11 11 10 11 12 12 11 10 9 8 7 6 5 4 5 4 3 3
11 12 12 10 11 12 11 13 11 9 10 12 12 7 2 2 0 1 2 1 2 3 2 3 5 7 9 10 10 10 10 10 10 10 8 7 7 7 5 4 5 4 4 4
8 10 12 14 11 11 12 13 12 10 10 11 12 7 3 1 1 2 1 2 1 2 1 2 3 5 7 9 9 8 8 9 9 7 7 7 6 6 6 6 5 4 4 4
9 8 10 11 9 9 11 12 13 13 11 11 13 7 1 2 2 2 2 2 1 2 1 1 1 3 5 6 7 7 7 8 8 7 6 6 6 6 6 5 4 4 4 4
6 10 12 13 10 9 11 13 12 13 12 11 13 9 4 2 1 2 3 4 2 2 2 2 2 3 4 4 5 6 6 6 7 7 7 6 5 5 5 4 4 4 4 4
7 11 14 16 17 16 15 14 13 13 12 13 12 11 7 1 1 2 2 2 3 3 3 2 3 4 4 5 4 4 5 5 5 6 6 5 5 4 4 4 3 4 4 5
7 10 13 16 17 17 17 16 15 14 12 13 13 11 4 3 2 2 2 2 2 2 2 3 3 4 4 4 3 3 3 4 4 5 5 5 5 4 4 4 4 4 4 4
8 9 11 14 16 17 17 15 14 13 12 12 11 7 2 3 1 1 1 1 2 2 2 2 3 3 2 3 3 3 3 3 4 4 4 4 5 5 4 5 4 4 3 4
11 10 8 12 14 17 11 10 11 10 11 8 6 5 4 3 1 0 1 1 0 1 1 1 1 2 2 2 3 2 3 3 4 4 4 4 5 4 4 4 4 3 3 3
12 9 10 10 14 14 13 9 9 9 9 6 6 5 5 3 3 2 2 2 1 1 1 1 1 1 1 2 2 3 3 3 3 3 4 4 5 4 4 3 3 2 3 3
12 9 10 11 14 14 8 6 7 7 7 5 4 3 4 3 3 0 3 3 2 2 3 2 2 1 2 2 2 3 3 3 3 3 3 3 4 4 4 4 3 3 3 3
11 11 13 14 15 11 7 7 7 7 3 6 6 5 5 3 3 1 2 3 4 3 3 2 2 2 2 1 0 1 2 2 2 2 2 3 3 4 4 4 4 4 4 4
9 9 10 10 13 8 7 5 4 4 5 5 5 5 5 4 3 2 2 2 2 2 3 2 2 2 2 1 0 0 1 1 1 1 2 2 3 4 4 3 4 4 5 5
8 7 6 6 4 1 3 3 4 4 5 4 4 3 3 2 2 2 2 2 1 1 2 1 2 2 2 1 1 0 0 1 1 1 2 2 3 3 3 4 4 4 5 5
7 5 7 7 5 4 5 4 4 4 5 5 3 2 2 2 1 1 1 1 1 1 2 2 2 2 2 2 1 1 0 1 1 1 2 2 3 3 3 3 4 5 4 4
10 8 8 9 8 7 5 5 5 4 4 4 4 3 2 2 2 0 0 1 1 1 1 1 1 1 0 0 1 1 1 0 1 2 3 3 4 4 3 4 4 4 2 2
10 9 8 8 6 7 6 6 6 5 5 4 3 4 4 3 2 1 1 1 1 1 1 1 1 1 0 1 1 2 1 1 2 3 3 4 3 3 3 3 3 2 4 5
Wind_Direction
231 236 242 245 251 258 265 280 287 274 261 259 245 209 179 184 190 179 174 176 179 181 177 172 172 168 168 168 169 173 180 170 176 184 188 192 194 198 186 182 176 179 197 196
240 236 243 249 254 258 262 265 270 269 263 267 263 243 201 189 197 188 180 179 181 180 177 173 176 175 174 172 173 175 180 176 182 182 188 190 192 203 193 193 165 176 191 197
241 248 247 252 254 258 261 262 268 280 288 276 262 255 227 199 200 190 185 183 182 182 179 174 178 180 176 174 175 180 180 174 182 178 185 199 185 213 203 178 167 187 193 194
251 253 251 253 254 256 263 269 269 268 272 273 271 263 232 214 202 195 187 183 186 184 178 176 180 183 182 177 178 177 173 174 179 181 191 196 193 200 202 184 175 187 198 197
253 250 248 251 253 259 266 268 267 261 266 273 267 264 242 219 206 198 194 188 187 181 180 178 181 182 183 180 178 175 171 175 179 188 194 200 205 204 196 189 180 187 191 199
263 259 255 259 262 259 267 264 258 255 258 258 259 262 247 224 200 190 199 200 188 177 182 179 177 176 183 181 177 173 170 177 181 191 198 201 211 209 206 196 182 192 194 195
255 252 248 251 259 253 251 252 252 248 240 251 252 256 255 214 194 185 191 204 190 172 180 181 176 176 180 181 178 174 172 178 184 192 201 199 208 210 211 207 201 205 201 196
252 249 238 239 250 260 255 251 252 265 268 268 252 254 262 238 195 181 181 194 191 178 184 186 180 176 179 181 177 174 174 179 185 192 198 199 201 208 212 213 218 204 209 206
276 268 252 241 245 250 256 256 263 270 273 275 264 246 238 224 213 195 185 177 177 181 183 180 174 173 176 179 178 177 172 178 187 193 192 195 199 209 213 201 212 219 214 214
278 282 269 252 243 240 251 261 265 262 265 270 269 261 235 222 234 198 156 140 134 135 173 171 173 175 174 178 178 176 173 177 182 189 192 195 194 202 214 210 210 213 213 217
282 279 275 260 242 246 241 248 257 271 271 273 277 281 283 152 326 209 159 101 146 149 158 167 176 175 172 175 175 175 169 171 178 186 188 194 190 198 206 212 212 213 212 213
291 281 277 269 258 249 248 253 252 255 262 270 276 277 314 38 214 271 126 86 79 91 114 144 158 167 170 172 171 170 170 172 175 177 181 188 186 192 203 208 206 205 207 210
327 291 276 264 248 248 251 255 258 262 261 261 267 261 225 302 316 339 25 62 56 99 104 93 100 142 156 163 162 164 166 172 172 168 170 178 188 194 202 203 201 200 202 202
293 277 278 278 281 284 266 263 261 259 262 263 266 272 251 255 315 347 10 17 7 59 85 88 72 100 113 117 129 141 152 159 164 164 169 173 187 191 194 197 194 197 199 199
276 274 277 282 284 279 279 274 266 262 265 267 273 278 288 297 329 348 359 3 8 40 70 79 81 79 93 103 109 119 133 139 156 158 168 173 183 188 184 188 191 195 200 204
273 285 291 284 280 278 277 277 277 271 268 266 269 273 282 310 6 32 353 347 346 13 59 69 86 95 102 116 123 122 125 133 144 159 171 166 172 183 185 187 188 194 201 206
278 280 282 279 284 281 268 270 273 275 277 279 276 289 298 299 291 249 251 256 317 345 32 53 68 82 110 131 128 131 141 148 156 167 172 175 179 185 187 197 189 191 197 206
260 273 276 275 276 264 269 282 278 274 281 287 285 288 286 289 280 281 257 265 99 10 354 43 76 99 108 120 132 144 156 163 169 170 182 184 188 193 194 201 197 196 203 214
246 248 262 270 268 265 268 278 285 274 275 301 301 295 291 283 268 225 82 69 70 103 71 56 90 77 91 125 152 170 180 186 181 173 187 189 191 198 195 196 200 197 209 219
231 228 246 258 264 265 283 311 316 291 265 330 326 327 303 279 263 42 54 41 31 66 83 73 55 62 69 95 163 182 184 189 195 192 193 188 188 194 195 192 192 207 213 219
226 227 237 252 260 264 305 318 302 271 300 346 353 2 340 338 346 29 51 55 60 52 61 65 59 62 55 35 58 195 202 205 216 207 200 193 195 202 202 191 189 203 220 222
252 247 243 248 253 260 338 323 324 343 350 344 345 356 5 12 30 44 30 39 63 70 60 51 60 59 54 40 68 161 194 226 264 249 229 203 199 217 211 194 200 209 219 225
264 274 278 273 269 4 356 352 344 336 331 328 320 339 348 355 2 37 24 349 318 93 89 78 85 69 58 62 83 57 147 159 208 270 250 216 211 211 208 205 214 222 221 226
271 284 281 285 274 297 303 310 310 315 313 315 324 331 317 323 333 58 22 326 336 41 60 62 73 76 51 28 16 359 324 180 165 258 264 230 225 217 209 213 225 228 227 230
300 304 290 278 285 291 291 315 315 316 321 331 330 321 304 304 305 24 134 285 351 33 35 60 76 113 129 359 324 311 310 260 216 236 249 241 234 222 212 215 232 235 228 237
275 279 276 282 309 301 298 305 304 299 295 301 300 307 301 284 290 293 294 298 1 14 16 13 356 355 350 310 303 297 301 291 267 255 256 255 242 220 221 221 239 238 229 220